Location: Augustów
(53.8466°N, 22.9876°E)
Time: 22:47:57
(UTC+01:00)

ISS - Visible Passes

Search period start: 23 January 2019 00:00
Search period end: 02 February 2019 00:00
Orbit: 404 x 410 km, 51.6° (Epoch: 24 January)

Date Brightness Start Highest point End Pass type
(mag) Time Alt. Az. Time Alt. Az. Time Alt. Az.
23 Jan -0.8 18:41:01 10° SSW 18:41:05 10° SSW 18:41:05 10° SSW visible
24 Jan -1.6 17:50:29 10° S 17:52:03 15° SSE 17:52:03 15° SSE visible
25 Jan -1.7 18:34:09 10° SW 18:35:41 22° SSW 18:35:41 22° SSW visible
26 Jan -2.4 17:43:11 10° SSW 17:45:55 24° SSE 17:46:30 23° SE visible
26 Jan -0.6 19:18:51 10° WSW 19:19:14 13° WSW 19:19:14 13° WSW visible
27 Jan -1.8 16:52:26 10° S 16:54:44 18° SSE 16:57:02 10° ESE visible
27 Jan -2.6 18:27:35 10° WSW 18:30:00 37° SSW 18:30:00 37° SSW visible
28 Jan -2.9 17:36:22 10° SW 17:39:27 37° SSE 17:40:43 26° ESE visible
28 Jan -1.0 19:12:28 10° W 19:13:26 18° WSW 19:13:26 18° WSW visible
29 Jan -2.4 16:45:17 10° SW 16:48:09 28° SSE 16:51:03 10° E visible
29 Jan -3.4 18:21:06 10° WSW 18:24:07 55° SSW 18:24:07 55° SSW visible
30 Jan -3.3 17:29:46 10° WSW 17:32:59 50° SSE 17:34:47 23° ESE visible
30 Jan -1.4 19:06:05 10° W 19:07:30 23° WSW 19:07:30 23° WSW visible
31 Jan -3.6 18:14:40 10° W 18:17:57 59° S 18:18:09 57° SSE visible
01 Feb -3.4 17:23:16 10° WSW 17:26:32 59° S 17:28:49 18° E visible
01 Feb -1.7 18:59:41 10° W 19:01:32 27° WSW 19:01:32 27° WSW visible
